Location: Unspecified
(35.7250°N, 0.0000°E)
Time: 18:53:54
(UTC+00:00)

Tiros 1 - Pass Details

Date: 02 July 2019
Orbit: 631 x 664 km, 48.4° (Epoch: 23 August)

Event Time Altitude Azimuth Distance (km) Brightness Sun altitude
Rises 02:02:39 0° 304° (NW) 2,938 10.6 -24.8°
Reaches altitude 10° 02:05:00 10° 301° (WNW) 2,022 9.7 -24.6°
Enters shadow 02:06:10 18° 299° (WNW) 1,579 9.1 -24.5°
